Location: Grand Rapids
(42.9630°N, 85.6680°W)
Time: 02:32:05
(UTC-04:00)

Transit 2A Rocket - Visible Passes

Search period start: 30 May 2024 00:00
Search period end: 09 June 2024 00:00
Orbit: 584 x 909 km, 66.7° (Epoch: 29 May)

Date Brightness Start Highest point End Pass type
(mag) Time Alt. Az. Time Alt. Az. Time Alt. Az.
30 May 7.1 02:05:16 12° ESE 02:05:20 12° ESE 02:07:23 10° ENE visible
30 May 4.8 03:45:04 39° SW 03:46:53 81° WNW 03:52:14 10° NNE visible
30 May 7.1 05:27:11 10° WNW 05:30:22 16° NW 05:33:43 10° N visible
31 May 5.1 03:02:04 49° SSE 03:02:55 57° ESE 03:08:05 10° NE visible
31 May 6.6 04:41:52 10° W 04:45:51 24° NW 04:50:13 10° N visible
01 Jun 5.9 02:19:03 31° ESE 02:19:07 31° ESE 02:23:40 10° NE visible
01 Jun 5.9 03:58:50 22° WSW 04:01:28 37° NW 04:06:29 10° NNE visible
02 Jun 6.8 01:35:59 17° E 01:35:59 17° E 01:38:43 10° ENE visible
02 Jun 5.1 03:15:46 43° WSW 03:17:15 63° NW 03:22:36 10° NNE visible
02 Jun 7.3 04:58:20 10° WNW 05:00:59 14° NNW 05:03:46 10° N visible
03 Jun 4.7 02:32:40 67° S 02:33:12 75° ESE 02:38:33 10° NE visible
03 Jun 6.9 04:12:40 10° W 04:16:23 20° NW 04:20:24 10° N visible
04 Jun 5.5 01:49:31 41° ESE 01:49:31 41° ESE 01:54:17 10° NE visible
04 Jun 6.3 03:29:17 19° W 03:31:57 30° NW 03:36:44 10° NNE visible
05 Jun 6.4 01:06:19 22° E 01:06:19 22° E 01:09:37 10° NE visible
05 Jun 5.6 02:46:06 36° W 02:47:38 49° NW 02:52:55 10° NNE visible
05 Jun 7.5 04:29:41 10° NW 04:31:38 12° NNW 04:33:38 10° N visible
06 Jun 7.1 00:23:05 11° E 00:23:05 11° E 00:23:58 10° ENE visible
06 Jun 4.8 02:02:51 68° SW 02:03:31 84° WNW 02:08:57 10° NNE visible
06 Jun 7.3 03:43:37 10° WNW 03:46:59 17° NW 03:50:31 10° N visible
07 Jun 5.0 01:19:34 55° ESE 01:19:34 55° ESE 01:24:47 10° NE visible
07 Jun 6.8 02:59:20 15° W 03:02:27 25° NW 03:06:57 10° NNE visible
08 Jun 5.9 00:36:13 30° E 00:36:13 30° E 00:40:20 10° NE visible
08 Jun 6.0 02:15:58 27° W 02:18:05 39° NW 02:23:12 10° NNE visible
08 Jun 7.8 04:01:39 10° NNW 04:02:18 10° NNW 04:02:57 10° NNW visible
08 Jun 6.7 23:52:48 16° E 23:52:48 16° E 23:55:21 10° ENE visible
